time, Switch, Flow(0), Analog(2)
yyyy/mm/dd HH:MM:SS.fff, True=FILTERED|False=TOTAL, L/min, V
2023/06/29 14:00:04.464, True, 2.321, 0.129091
2023/06/29 14:00:04.960, True, 2.021, 0.130617
2023/06/29 14:00:05.464, True, 1.659, 0.131075
2023/06/29 14:00:05.960, True, 1.350, 0.128862
2023/06/29 14:00:06.464, True, 1.657, 0.127489
2023/06/29 14:00:06.968, True, 1.656, 0.129091
2023/06/29 14:00:07.464, True, 1.685, 0.128099
2023/06/29 14:00:07.968, True, 1.326, 0.129473
2023/06/29 14:00:08.472, True, 1.658, 0.128023
2023/06/29 14:00:08.968, True, 1.685, 0.128862
2023/06/29 14:00:09.472, True, 1.658, 0.130312
2023/06/29 14:00:09.976, True, 1.327, 0.130694
2023/06/29 14:00:10.472, True, 1.684, 0.128023
2023/06/29 14:00:10.976, True, 1.658, 0.128328
2023/06/29 14:00:11.480, True, 1.658, 0.129854
2023/06/29 14:00:11.976, True, 1.348, 0.130465
2023/06/29 14:00:12.480, True, 1.658, 0.129473
2023/06/29 14:00:12.983, True, 1.658, 0.129091
2023/06/29 14:00:13.480, True, 1.685, 0.129397
2023/06/29 14:00:13.984, True, 1.658, 0.128405
2023/06/29 14:00:14.487, True, 1.658, 0.128634
2023/06/29 14:00:14.992, True, 1.658, 0.128939
2023/06/29 14:00:15.488, True, 1.685, 0.130541
2023/06/29 14:00:15.992, True, 1.658, 0.131456
2023/06/29 14:00:16.487, True, 1.348, 0.130083
2023/06/29 14:00:16.992, True, 1.658, 0.129854
2023/06/29 14:00:17.496, True, 1.992, 0.128634
2023/06/29 14:00:17.992, True, 1.346, 0.127108
2023/06/29 14:00:18.496, True, 1.658, 0.128710
2023/06/29 14:00:18.999, True, 1.658, 0.129549
2023/06/29 14:00:19.503, True, 1.991, 0.130617
2023/06/29 14:00:19.000, True, 1.347, 0.131304
2023/06/29 14:00:20.504, True, 1.658, 0.129625
2023/06/29 14:00:20.000, True, 1.684, 0.130083
2023/06/29 14:00:21.504, True, 1.658, 0.131151
2023/06/29 14:00:22.008, True, 1.658, 0.129778
2023/06/29 14:00:22.504, True, 1.685, 0.128862
2023/06/29 14:00:23.008, True, 1.659, 0.128862
2023/06/29 14:00:23.511, True, 1.658, 0.126726
2023/06/29 14:00:24.008, True, 1.685, 0.129473
2023/06/29 14:00:24.512, True, 1.326, 0.127108
2023/06/29 14:00:25.016, True, 1.658, 0.128328
2023/06/29 14:00:25.511, True, 1.685, 0.130770
2023/06/29 14:00:26.016, True, 1.326, 0.131762
2023/06/29 14:00:26.520, True, 1.658, 0.128557
2023/06/29 14:00:27.016, True, 1.685, 0.131609
2023/06/29 14:00:27.520, True, 1.326, 0.129549
2023/06/29 14:00:28.016, True, 1.685, 0.131304
2023/06/29 14:00:28.520, True, 1.327, 0.129091
2023/06/29 14:00:29.024, True, 1.658, 0.129854
2023/06/29 14:00:29.520, True, 1.685, 0.129702
2023/06/29 14:00:30.024, True, 1.326, 0.128786
2023/06/29 14:00:30.528, True, 1.658, 0.130694
2023/06/29 14:00:31.032, True, 1.658, 0.128710
2023/06/29 14:00:31.528, True, 1.685, 0.131456
2023/06/29 14:00:32.032, True, 1.658, 0.131456
2023/06/29 14:00:32.536, True, 1.658, 0.127565
2023/06/29 14:00:33.031, True, 2.023, 0.129625
2023/06/29 14:00:33.536, True, 1.657, 0.129549
2023/06/29 14:00:34.040, True, 1.658, 0.128557
2023/06/29 14:00:34.536, True, 1.685, 0.128481
2023/06/29 14:00:35.040, True, 1.658, 0.131685
2023/06/29 14:00:35.544, True, 1.659, 0.131228
2023/06/29 14:00:36.040, True, 1.684, 0.129168
2023/06/29 14:00:36.544, True, 1.658, 0.128939
2023/06/29 14:00:37.048, True, 1.659, 0.130770
2023/06/29 14:00:37.544, True, 1.684, 0.127413
2023/06/29 14:00:38.048, True, 1.326, 0.130236
2023/06/29 14:00:38.544, True, 1.685, 0.128862
2023/06/29 14:00:39.048, True, 1.658, 0.130159
2023/06/29 14:00:39.552, True, 1.658, 0.130159
2023/06/29 14:00:40.055, True, 1.327, 0.129091
2023/06/29 14:00:40.552, True, 1.684, 0.131838
2023/06/29 14:00:41.056, True, 1.658, 0.131304
2023/06/29 14:00:41.552, True, 1.685, 0.132982
2023/06/29 14:00:42.055, True, 1.658, 0.131914
2023/06/29 14:00:42.560, True, 1.658, 0.132677
2023/06/29 14:00:43.063, True, 1.658, 0.130922
2023/06/29 14:00:43.559, True, 1.684, 0.130846
2023/06/29 14:00:44.064, True, 1.328, 0.131151
2023/06/29 14:00:44.568, True, 1.656, 0.131533
2023/06/29 14:00:45.063, True, 1.685, 0.132372
2023/06/29 14:00:45.567, True, 1.658, 0.131762
2023/06/29 14:00:46.072, True, 1.326, 0.132219
2023/06/29 14:00:46.567, True, 1.685, 0.132143
2023/06/29 14:00:47.072, True, 1.327, 0.132677
2023/06/29 14:00:47.576, True, 1.657, 0.131380
2023/06/29 14:00:48.072, True, 1.348, 0.131533
2023/06/29 14:00:48.576, True, 1.659, 0.134127
2023/06/29 14:00:49.080, True, 1.657, 0.134585
2023/06/29 14:00:49.576, True, 1.348, 0.132219
2023/06/29 14:00:50.080, True, 1.658, 0.134127
2023/06/29 14:00:50.576, True, 1.684, 0.133974
2023/06/29 14:00:51.080, True, 1.658, 0.134127
2023/06/29 14:00:51.584, True, 1.659, 0.132982
2023/06/29 14:00:52.080, True, 1.684, 0.133135
2023/06/29 14:00:52.584, True, 1.326, 0.134813
2023/06/29 14:00:53.088, True, 1.659, 0.133593
2023/06/29 14:00:53.584, True, 1.686, 0.136263
2023/06/29 14:00:54.087, True, 1.326, 0.133745
2023/06/29 14:00:54.592, True, 1.658, 0.134661
2023/06/29 14:00:55.088, True, 1.685, 0.134203
2023/06/29 14:00:55.592, True, 1.659, 0.133898
2023/06/29 14:00:56.088, True, 1.346, 0.135500
2023/06/29 14:00:56.592, True, 1.658, 0.136187
2023/06/29 14:00:57.096, True, 1.659, 0.134051
2023/06/29 14:00:57.592, True, 1.685, 0.134279
2023/06/29 14:00:58.096, True, 1.656, 0.135729
2023/06/29 14:00:58.600, True, 1.660, 0.135729
2023/06/29 14:00:59.104, True, 1.656, 0.135576
2023/06/29 14:00:59.600, True, 1.688, 0.135958
2023/06/29 14:01:00.104, True, 1.655, 0.136263
2023/06/29 14:01:00.608, True, 1.658, 0.135805
2023/06/29 14:01:01.104, True, 1.685, 0.135653
2023/06/29 14:01:01.608, True, 1.328, 0.135500
2023/06/29 14:01:02.112, True, 1.658, 0.135882
2023/06/29 14:01:02.608, True, 1.347, 0.135805
2023/06/29 14:01:03.112, True, 1.658, 0.137484
2023/06/29 14:01:03.616, True, 1.660, 0.135424
2023/06/29 14:01:04.120, True, 1.656, 0.136416
2023/06/29 14:01:04.616, True, 1.349, 0.136645
2023/06/29 14:01:05.120, True, 1.657, 0.135653
2023/06/29 14:01:05.624, True, 1.989, 0.135576
2023/06/29 14:01:06.120, True, 1.348, 0.136568
2023/06/29 14:01:06.624, True, 1.658, 0.134966
2023/06/29 14:01:07.128, True, 1.660, 0.137942
2023/06/29 14:01:07.624, True, 1.682, 0.136339
2023/06/29 14:01:08.128, True, 1.327, 0.134813
2023/06/29 14:01:08.624, True, 1.685, 0.137102
2023/06/29 14:01:09.128, True, 1.658, 0.136187
2023/06/29 14:01:09.632, True, 1.658, 0.136645
2023/06/29 14:01:10.127, True, 1.685, 0.137560
2023/06/29 14:01:10.632, True, 1.658, 0.136721
2023/06/29 14:01:11.136, True, 1.658, 0.136568
2023/06/29 14:01:11.632, True, 1.685, 0.137255
2023/06/29 14:01:12.136, True, 1.327, 0.137865
2023/06/29 14:01:12.640, True, 1.658, 0.138247
2023/06/29 14:01:13.136, True, 1.685, 0.138476
2023/06/29 14:01:13.640, True, 1.326, 0.136873
2023/06/29 14:01:14.144, True, 1.658, 0.136110
2023/06/29 14:01:14.640, True, 1.685, 0.137942
2023/06/29 14:01:15.144, True, 1.658, 0.137713
2023/06/29 14:01:15.648, True, 1.658, 0.137713
2023/06/29 14:01:16.144, True, 1.348, 0.137865
2023/06/29 14:01:16.648, True, 1.658, 0.137179
2023/06/29 14:01:17.144, True, 1.348, 0.136568
2023/06/29 14:01:17.648, True, 1.658, 0.137102
2023/06/29 14:01:18.152, True, 1.658, 0.138170
2023/06/29 14:01:18.648, True, 1.685, 0.140154
2023/06/29 14:01:19.152, True, 1.658, 0.137560
2023/06/29 14:01:19.656, True, 1.327, 0.137560
2023/06/29 14:01:20.152, True, 1.684, 0.137179
2023/06/29 14:01:20.656, True, 1.658, 0.137560
2023/06/29 14:01:21.160, True, 1.658, 0.136568
2023/06/29 14:01:21.656, True, 1.348, 0.139620
2023/06/29 14:01:22.160, True, 1.658, 0.138323
2023/06/29 14:01:22.664, True, 1.658, 0.137026
2023/06/29 14:01:23.160, True, 1.348, 0.137102
2023/06/29 14:01:23.664, True, 1.658, 0.136873
2023/06/29 14:01:24.168, True, 1.659, 0.137865
2023/06/29 14:01:24.664, True, 1.684, 0.137942
2023/06/29 14:01:25.168, True, 1.658, 0.137331
2023/06/29 14:01:25.672, True, 1.661, 0.136416
2023/06/29 14:01:26.168, True, 1.346, 0.137484
2023/06/29 14:01:26.672, True, 1.657, 0.136568
2023/06/29 14:01:27.176, True, 1.658, 0.137789
2023/06/29 14:01:27.672, True, 1.685, 0.136339
2023/06/29 14:01:28.176, True, 1.659, 0.138094
2023/06/29 14:01:28.680, True, 1.326, 0.136339
2023/06/29 14:01:29.176, True, 1.685, 0.136492
2023/06/29 14:01:29.680, True, 1.658, 0.137560
2023/06/29 14:01:30.184, True, 1.661, 0.137331
2023/06/29 14:01:30.680, True, 1.682, 0.135958
2023/06/29 14:01:31.184, True, 1.658, 0.135805
2023/06/29 14:01:31.688, True, 1.658, 0.139010
2023/06/29 14:01:32.184, True, 1.348, 0.136797
2023/06/29 14:01:32.688, True, 1.657, 0.137789
2023/06/29 14:01:33.184, True, 1.685, 0.138476
2023/06/29 14:01:33.688, True, 1.658, 0.135958
2023/06/29 14:01:34.192, True, 1.658, 0.138476
2023/06/29 14:01:34.688, True, 1.350, 0.137789
2023/06/29 14:01:35.192, True, 1.656, 0.136416
2023/06/29 14:01:35.696, True, 1.658, 0.136110
2023/06/29 14:01:36.191, True, 1.685, 0.136950
2023/06/29 14:01:36.696, True, 1.658, 0.137407
2023/06/29 14:01:37.200, True, 1.658, 0.138018
2023/06/29 14:01:37.696, True, 1.684, 0.136339
2023/06/29 14:01:38.200, True, 1.658, 0.135653
2023/06/29 14:01:38.704, True, 1.658, 0.137179
2023/06/29 14:01:39.200, True, 1.689, 0.135042
2023/06/29 14:01:39.704, True, 1.324, 0.136110
2023/06/29 14:01:40.208, True, 1.326, 0.136034
2023/06/29 14:01:40.704, True, 1.685, 0.136873
2023/06/29 14:01:41.208, True, 1.327, 0.138476
2023/06/29 14:01:41.712, True, 1.657, 0.140917
2023/06/29 14:01:42.208, True, 1.685, 0.134203
2023/06/29 14:01:42.712, True, 1.659, 0.135882
2023/06/29 14:01:43.216, True, 1.657, 0.137255
2023/06/29 14:01:43.712, True, 1.684, 0.136416
2023/06/29 14:01:44.216, True, 1.327, 0.137636
2023/06/29 14:01:44.720, True, 1.659, 0.137407
2023/06/29 14:01:45.216, True, 1.346, 0.136416
2023/06/29 14:01:45.720, True, 1.659, 0.136721
2023/06/29 14:01:46.223, True, 1.325, 0.134813
2023/06/29 14:01:46.720, True, 1.684, 0.135424
2023/06/29 14:01:47.223, True, 1.660, 0.137560
2023/06/29 14:01:47.727, True, 1.325, 0.137331
2023/06/29 14:01:48.223, True, 1.685, 0.137102
2023/06/29 14:01:48.728, True, 1.658, 0.136950
2023/06/29 14:01:49.231, True, 1.658, 0.137102
2023/06/29 14:01:49.728, True, 1.348, 0.136873
2023/06/29 14:01:50.232, True, 1.660, 0.136187
2023/06/29 14:01:50.736, True, 1.656, 0.136797
2023/06/29 14:01:51.232, True, 1.684, 0.139467
2023/06/29 14:01:51.736, True, 1.327, 0.135500
2023/06/29 14:01:52.240, True, 1.658, 0.135271
2023/06/29 14:01:52.736, True, 1.684, 0.137407
2023/06/29 14:01:53.240, True, 1.326, 0.136797
2023/06/29 14:01:53.743, True, 1.658, 0.136873
2023/06/29 14:01:54.240, True, 1.685, 0.135882
2023/06/29 14:01:54.744, True, 1.658, 0.139086
2023/06/29 14:01:55.239, True, 1.348, 0.135500
2023/06/29 14:01:55.744, True, 1.658, 0.137865
2023/06/29 14:01:56.248, True, 1.327, 0.135958
2023/06/29 14:01:56.752, True, 1.658, 0.135882
2023/06/29 14:01:57.248, True, 1.685, 0.134051
2023/06/29 14:01:57.752, True, 1.658, 0.137102
2023/06/29 14:01:58.248, True, 1.348, 0.134661
2023/06/29 14:01:58.752, True, 1.661, 0.137026
2023/06/29 14:01:59.256, True, 1.655, 0.139086
2023/06/29 14:01:59.760, True, 1.658, 0.134737
2023/06/29 14:02:00.256, True, 1.685, 0.136416
2023/06/29 14:02:00.760, True, 1.658, 0.134813
2023/06/29 14:02:01.264, True, 1.657, 0.137484
2023/06/29 14:02:01.760, True, 1.348, 0.135805
2023/06/29 14:02:02.264, True, 1.658, 0.135805
2023/06/29 14:02:02.760, True, 1.348, 0.136339
2023/06/29 14:02:03.264, True, 1.990, 0.136492
2023/06/29 14:02:03.768, True, 1.658, 0.137636
2023/06/29 14:02:04.264, True, 1.685, 0.135195
2023/06/29 14:02:04.768, True, 1.660, 0.136797
2023/06/29 14:02:05.272, True, 1.656, 0.136492
2023/06/29 14:02:05.768, True, 1.685, 0.138323
2023/06/29 14:02:06.271, True, 1.658, 0.135348
2023/06/29 14:02:06.776, True, 1.658, 0.136721
2023/06/29 14:02:07.272, True, 1.348, 0.136721
2023/06/29 14:02:07.776, True, 1.658, 0.135424
2023/06/29 14:02:08.280, True, 1.658, 0.136339
2023/06/29 14:02:08.776, True, 1.684, 0.135271
2023/06/29 14:02:09.280, True, 1.658, 0.133898
2023/06/29 14:02:09.784, True, 1.326, 0.135805
2023/06/29 14:02:10.280, True, 1.685, 0.136568
2023/06/29 14:02:10.784, True, 1.658, 0.134051
2023/06/29 14:02:11.288, True, 1.658, 0.136721
2023/06/29 14:02:11.784, True, 1.685, 0.136492
2023/06/29 14:02:12.288, True, 1.661, 0.136339
2023/06/29 14:02:12.792, True, 1.655, 0.136492
2023/06/29 14:02:13.287, True, 1.348, 0.136797
2023/06/29 14:02:13.792, True, 1.658, 0.135042
2023/06/29 14:02:14.296, True, 1.658, 0.136034
2023/06/29 14:02:14.792, True, 1.348, 0.133364
2023/06/29 14:02:15.296, True, 1.658, 0.135042
2023/06/29 14:02:15.800, True, 1.658, 0.135500
2023/06/29 14:02:16.296, True, 1.684, 0.136263
2023/06/29 14:02:16.800, True, 1.658, 0.135348
2023/06/29 14:02:17.304, True, 1.327, 0.134966
2023/06/29 14:02:17.808, True, 1.657, 0.133898
2023/06/29 14:02:18.304, True, 1.348, 0.136263
2023/06/29 14:02:18.808, True, 1.658, 0.136263
2023/06/29 14:02:19.312, True, 1.658, 0.138170
2023/06/29 14:02:19.807, True, 1.685, 0.133669
2023/06/29 14:02:20.311, True, 1.659, 0.136263
2023/06/29 14:02:20.816, True, 1.657, 0.135958
2023/06/29 14:02:21.312, True, 1.685, 0.135271
2023/06/29 14:02:21.815, True, 1.659, 0.135195
2023/06/29 14:02:22.319, True, 1.657, 0.135348
2023/06/29 14:02:22.824, True, 1.660, 0.133898
2023/06/29 14:02:23.320, True, 1.685, 0.136645
2023/06/29 14:02:23.824, True, 1.655, 0.136873
2023/06/29 14:02:24.327, True, 1.661, 0.135119
2023/06/29 14:02:24.824, True, 1.349, 0.136797
2023/06/29 14:02:25.328, True, 1.656, 0.137636
2023/06/29 14:02:25.832, True, 1.658, 0.133516
2023/06/29 14:02:26.328, True, 1.686, 0.135882
2023/06/29 14:02:26.832, True, 1.655, 0.137255
2023/06/29 14:02:27.336, True, 1.326, 0.136110
2023/06/29 14:02:27.832, True, 1.687, 0.136263
2023/06/29 14:02:28.336, True, 1.657, 0.135805
2023/06/29 14:02:28.832, True, 1.684, 0.135729
2023/06/29 14:02:29.336, True, 1.327, 0.132143
2023/06/29 14:02:29.839, True, 1.661, 0.137331
2023/06/29 14:02:30.336, True, 1.685, 0.135500
2023/06/29 14:02:30.840, True, 1.655, 0.136034
2023/06/29 14:02:31.344, True, 1.658, 0.136492
2023/06/29 14:02:31.848, True, 1.658, 0.134508
2023/06/29 14:02:32.344, True, 1.685, 0.134508
2023/06/29 14:02:32.848, True, 1.658, 0.134890
2023/06/29 14:02:33.352, True, 1.658, 0.136034
2023/06/29 14:02:33.848, True, 1.688, 0.136721
2023/06/29 14:02:34.352, True, 1.655, 0.135576
2023/06/29 14:02:34.856, True, 1.658, 0.136721
2023/06/29 14:02:35.352, True, 1.348, 0.136721
2023/06/29 14:02:35.856, True, 1.989, 0.135271
2023/06/29 14:02:36.360, True, 1.659, 0.136034
2023/06/29 14:02:36.856, True, 1.683, 0.135805
2023/06/29 14:02:37.360, True, 1.326, 0.135958
2023/06/29 14:02:37.864, True, 1.659, 0.136110
2023/06/29 14:02:38.359, True, 1.684, 0.136568
2023/06/29 14:02:38.864, True, 1.658, 0.135958
2023/06/29 14:02:39.368, True, 1.658, 0.133516
2023/06/29 14:02:39.864, True, 1.348, 0.136645
2023/06/29 14:02:40.368, True, 1.658, 0.136110
2023/06/29 14:02:40.864, True, 1.347, 0.136263
2023/06/29 14:02:41.368, True, 1.658, 0.134356
2023/06/29 14:02:41.872, True, 1.658, 0.136492
2023/06/29 14:02:42.368, True, 1.348, 0.135348
2023/06/29 14:02:42.872, True, 1.658, 0.136797
2023/06/29 14:02:43.376, True, 1.658, 0.135119
2023/06/29 14:02:43.872, True, 1.687, 0.134890
2023/06/29 14:02:44.376, True, 1.655, 0.134966
2023/06/29 14:02:44.880, True, 1.328, 0.134356
2023/06/29 14:02:45.375, True, 1.683, 0.136721
2023/06/29 14:02:45.880, True, 1.327, 0.134966
2023/06/29 14:02:46.384, True, 1.657, 0.133211
2023/06/29 14:02:46.880, True, 1.351, 0.136645
2023/06/29 14:02:47.384, True, 1.655, 0.134432
2023/06/29 14:02:47.887, True, 1.657, 0.135958
2023/06/29 14:02:48.384, True, 1.348, 0.135729
2023/06/29 14:02:48.888, True, 1.328, 0.133974
2023/06/29 14:02:49.392, True, 1.656, 0.132982
2023/06/29 14:02:49.888, True, 1.687, 0.134661
2023/06/29 14:02:50.392, True, 1.656, 0.136263
2023/06/29 14:02:50.896, True, 1.658, 0.133364
2023/06/29 14:02:51.392, True, 1.348, 0.135042
2023/06/29 14:02:51.896, True, 1.658, 0.134737
2023/06/29 14:02:52.392, True, 1.686, 0.133822
2023/06/29 14:02:52.896, True, 1.658, 0.135042
2023/06/29 14:02:53.400, True, 1.657, 0.135424
2023/06/29 14:02:53.896, True, 1.684, 0.133898
2023/06/29 14:02:54.400, True, 1.658, 0.136187
2023/06/29 14:02:54.904, True, 1.658, 0.133974
2023/06/29 14:02:55.400, True, 1.684, 0.135042
2023/06/29 14:02:55.904, True, 1.327, 0.134737
2023/06/29 14:02:56.408, True, 1.658, 0.133745
2023/06/29 14:02:56.912, True, 1.658, 0.135348
2023/06/29 14:02:57.408, True, 1.685, 0.135042
2023/06/29 14:02:57.912, True, 1.327, 0.132830
2023/06/29 14:02:58.416, True, 1.658, 0.132677
2023/06/29 14:02:58.912, True, 1.685, 0.136797
2023/06/29 14:02:59.416, True, 1.658, 0.133516
2023/06/29 14:02:59.920, True, 1.660, 0.134127
2023/06/29 14:03:00.416, True, 1.683, 0.134508
2023/06/29 14:03:00.920, True, 1.658, 0.134966
2023/06/29 14:03:01.416, True, 1.347, 0.134203
2023/06/29 14:03:01.920, True, 1.661, 0.136721
2023/06/29 14:03:02.424, True, 1.324, 0.134203
2023/06/29 14:03:02.920, True, 1.685, 0.134890
2023/06/29 14:03:03.424, True, 1.658, 0.133898
2023/06/29 14:03:03.928, True, 1.658, 0.133822
2023/06/29 14:03:04.432, True, 1.658, 0.135119
2023/06/29 14:03:04.928, True, 1.685, 0.134585
2023/06/29 14:03:05.432, True, 1.658, 0.132525
2023/06/29 14:03:05.928, True, 1.685, 0.135195
2023/06/29 14:03:06.432, True, 1.658, 0.134279
2023/06/29 14:03:06.936, True, 1.658, 0.132448
2023/06/29 14:03:07.432, True, 1.348, 0.136492
2023/06/29 14:03:07.936, True, 1.658, 0.134432
2023/06/29 14:03:08.440, True, 1.658, 0.135958
2023/06/29 14:03:08.936, True, 1.685, 0.134432
2023/06/29 14:03:09.440, True, 1.326, 0.134432
2023/06/29 14:03:09.936, True, 1.685, 0.135500
2023/06/29 14:03:10.440, True, 1.658, 0.133593
2023/06/29 14:03:10.944, True, 1.658, 0.133440
2023/06/29 14:03:11.448, True, 1.658, 0.134966
2023/06/29 14:03:11.944, True, 1.685, 0.133669
2023/06/29 14:03:12.448, True, 1.658, 0.132830
2023/06/29 14:03:12.951, True, 1.658, 0.134051
2023/06/29 14:03:13.448, True, 1.684, 0.133135
2023/06/29 14:03:13.951, True, 1.661, 0.134890
2023/06/29 14:03:14.456, True, 1.324, 0.133669
2023/06/29 14:03:14.952, True, 1.685, 0.135729
2023/06/29 14:03:15.456, True, 1.658, 0.132219
2023/06/29 14:03:15.960, True, 1.327, 0.133593
2023/06/29 14:03:16.456, True, 1.684, 0.134051
2023/06/29 14:03:16.960, True, 1.658, 0.136034
2023/06/29 14:03:17.464, True, 1.658, 0.134051
2023/06/29 14:03:17.960, True, 1.685, 0.132143
2023/06/29 14:03:18.464, True, 1.658, 0.132830
2023/06/29 14:03:18.960, True, 1.685, 0.133669
2023/06/29 14:03:19.464, True, 1.326, 0.131914
2023/06/29 14:03:19.968, True, 1.658, 0.132525
2023/06/29 14:03:20.472, True, 1.658, 0.133135
2023/06/29 14:03:20.968, True, 2.022, 0.133974
2023/06/29 14:03:21.472, True, 1.658, 0.132067
2023/06/29 14:03:21.968, True, 1.348, 0.134508
2023/06/29 14:03:22.472, True, 1.658, 0.137484
2023/06/29 14:03:22.976, True, 1.658, 0.135958
2023/06/29 14:03:23.472, True, 1.348, 0.132830
2023/06/29 14:03:23.975, True, 1.990, 0.133822
2023/06/29 14:03:24.480, True, 1.658, 0.133898
2023/06/29 14:03:24.976, True, 1.348, 0.134203
2023/06/29 14:03:25.480, True, 1.990, 0.135653
2023/06/29 14:03:25.984, True, 1.658, 0.134279
2023/06/29 14:03:26.480, True, 1.348, 0.135805
2023/06/29 14:03:26.984, True, 1.658, 0.135805
2023/06/29 14:03:27.488, True, 1.326, 0.133974
2023/06/29 14:03:27.983, True, 1.685, 0.132906
2023/06/29 14:03:28.488, True, 1.658, 0.134356
2023/06/29 14:03:28.984, True, 1.685, 0.132753
2023/06/29 14:03:29.488, True, 1.658, 0.133822
2023/06/29 14:03:29.992, True, 1.326, 0.134127
2023/06/29 14:03:30.488, True, 1.685, 0.133669
2023/06/29 14:03:30.992, True, 1.658, 0.133288
2023/06/29 14:03:31.496, True, 1.658, 0.133974
2023/06/29 14:03:31.992, True, 1.685, 0.134585
2023/06/29 14:03:32.496, True, 1.658, 0.134356
2023/06/29 14:03:33.000, True, 1.658, 0.134661
2023/06/29 14:03:33.496, True, 1.685, 0.135653
2023/06/29 14:03:33.999, True, 1.326, 0.134432
2023/06/29 14:03:34.504, True, 1.658, 0.133974
2023/06/29 14:03:34.000, True, 1.684, 0.134737
2023/06/29 14:03:35.504, True, 1.658, 0.134966
2023/06/29 14:03:36.008, True, 1.659, 0.131838
2023/06/29 14:03:36.504, True, 1.684, 0.133211
2023/06/29 14:03:37.008, True, 1.326, 0.133974
2023/06/29 14:03:37.512, True, 1.658, 0.132143
2023/06/29 14:03:38.008, True, 1.684, 0.134051
2023/06/29 14:03:38.512, True, 1.658, 0.134890
2023/06/29 14:03:39.016, True, 1.658, 0.135348
2023/06/29 14:03:39.512, True, 1.685, 0.134203
2023/06/29 14:03:40.016, True, 1.329, 0.130617
2023/06/29 14:03:40.520, True, 1.655, 0.132906
2023/06/29 14:03:41.016, True, 1.685, 0.133364
2023/06/29 14:03:41.520, True, 1.659, 0.133593
2023/06/29 14:03:42.016, True, 1.684, 0.131685
2023/06/29 14:03:42.520, True, 1.326, 0.134966
2023/06/29 14:03:43.024, True, 1.326, 0.134432
2023/06/29 14:03:43.520, True, 1.685, 0.132601
2023/06/29 14:03:44.024, True, 1.658, 0.132677
2023/06/29 14:03:44.528, True, 1.328, 0.132830
2023/06/29 14:03:45.024, True, 1.682, 0.133288
2023/06/29 14:03:45.528, True, 1.659, 0.133059
2023/06/29 14:03:46.032, True, 1.658, 0.134890
2023/06/29 14:03:46.528, True, 1.685, 0.133745
2023/06/29 14:03:47.032, True, 1.658, 0.131075
2023/06/29 14:03:47.536, True, 1.658, 0.132906
2023/06/29 14:03:48.032, True, 1.685, 0.132906
2023/06/29 14:03:48.536, True, 1.661, 0.132982
2023/06/29 14:03:49.040, True, 1.655, 0.133822
2023/06/29 14:03:49.536, True, 1.685, 0.131685
2023/06/29 14:03:50.040, True, 1.658, 0.132982
2023/06/29 14:03:50.544, True, 1.990, 0.133135
2023/06/29 14:03:51.040, True, 1.348, 0.132830
2023/06/29 14:03:51.544, True, 1.658, 0.132525
2023/06/29 14:03:52.048, True, 1.659, 0.134661
2023/06/29 14:03:52.544, True, 1.684, 0.131838
2023/06/29 14:03:53.048, True, 1.326, 0.133211
2023/06/29 14:03:53.551, True, 1.660, 0.133211
2023/06/29 14:03:54.048, True, 1.683, 0.133059
2023/06/29 14:03:54.552, True, 1.658, 0.132906
2023/06/29 14:03:55.056, True, 1.659, 0.133440
2023/06/29 14:03:55.552, True, 1.685, 0.130846
2023/06/29 14:03:56.055, True, 1.657, 0.132448
2023/06/29 14:03:56.559, True, 1.327, 0.133822
2023/06/29 14:03:57.055, True, 1.685, 0.133211
2023/06/29 14:03:57.560, True, 1.657, 0.134051
2023/06/29 14:03:58.064, True, 1.659, 0.133745
2023/06/29 14:03:58.560, True, 1.685, 0.131991
2023/06/29 14:03:59.064, True, 1.657, 0.131609
2023/06/29 14:03:59.568, True, 1.659, 0.133669
2023/06/29 14:04:00.072, True, 1.657, 0.133135
2023/06/29 14:04:00.568, True, 1.684, 0.133440
2023/06/29 14:04:01.072, True, 1.328, 0.131456
2023/06/29 14:04:01.576, True, 1.660, 0.130617
2023/06/29 14:04:02.072, True, 1.681, 0.131151
2023/06/29 14:04:02.576, True, 1.660, 0.132601
2023/06/29 14:04:03.080, True, 1.658, 0.132906
2023/06/29 14:04:03.576, True, 1.686, 0.133059
2023/06/29 14:04:04.080, True, 1.655, 0.134966
2023/06/29 14:04:04.584, True, 1.658, 0.133745
2023/06/29 14:04:05.080, True, 1.685, 0.133745
2023/06/29 14:04:05.584, True, 1.660, 0.134737
2023/06/29 14:04:06.088, True, 1.987, 0.131380
2023/06/29 14:04:06.584, True, 1.350, 0.132982
2023/06/29 14:04:07.088, True, 1.658, 0.133135
2023/06/29 14:04:07.592, True, 1.655, 0.133745
2023/06/29 14:04:08.096, True, 1.658, 0.132296
2023/06/29 14:04:08.592, True, 1.350, 0.132753
2023/06/29 14:04:09.096, True, 1.655, 0.132372
2023/06/29 14:04:09.600, True, 1.658, 0.132067
2023/06/29 14:04:10.096, True, 1.685, 0.129931
2023/06/29 14:04:10.600, True, 1.659, 0.131609
2023/06/29 14:04:11.104, True, 1.656, 0.131075
2023/06/29 14:04:11.599, True, 1.687, 0.134890
2023/06/29 14:04:12.104, True, 1.655, 0.132677
2023/06/29 14:04:12.608, True, 1.658, 0.131991
2023/06/29 14:04:13.104, True, 1.685, 0.133364
2023/06/29 14:04:13.608, True, 1.658, 0.132219